When you browse on this site, cookies collect data to enhance your experience and personalize the content and advertising you see.
Visit our Privacy Policy to learn more. By continuing to use the site, you agree to this use of cookies and data.

Hourly Weather Bangalore

Today, 25 September, Friday

Time Temperature Precipitation Wind Pressure Humidity
00:00 +23°C° 0 mm 2 mps 683 mmHg 88%
01:00 +23°C° 0 mm 2 mps 682 mmHg 88%
02:00 +23°C° 0 mm 2 mps 682 mmHg 89%
03:00 +21°C° 0.2 mm 2 mps 682 mmHg 90%
04:00 +21°C° 0.2 mm 2 mps 681 mmHg 92%
05:00 +21°C° 0 mm 2 mps 682 mmHg 92%
06:00 +23°C° 0 mm 2 mps 682 mmHg 88%
07:00 +22°C° 0 mm 3 mps 683 mmHg 84%
08:00 +24°C° 0 mm 3 mps 683 mmHg 80%
09:00 +26°C° 0 mm 3 mps 683 mmHg 75%
10:00 +27°C° 0 mm 3 mps 683 mmHg 69%
11:00 +28°C° 0 mm 4 mps 683 mmHg 64%
12:00 +29°C° 0.1 mm 4 mps 683 mmHg 63%
13:00 +29°C° 0.1 mm 4 mps 682 mmHg 61%
14:00 +30°C° 0.1 mm 4 mps 681 mmHg 60%
15:00 +29°C° 0.7 mm 3 mps 681 mmHg 64%
16:00 +28°C° 0.7 mm 3 mps 681 mmHg 68%
17:00 +28°C° 0.7 mm 2 mps 681 mmHg 72%
18:00 +27°C° 1.9 mm 3 mps 681 mmHg 75%
19:00 +26°C° 1.9 mm 4 mps 682 mmHg 78%
20:00 +25°C° 1.9 mm 5 mps 682 mmHg 81%
21:00 +23°C° 0.8 mm 5 mps 682 mmHg 83%
22:00 +23°C° 0.8 mm 5 mps 682 mmHg 86%
23:00 +22°C° 0.8 mm 5 mps 682 mmHg 88%

Tomorrow, 26 September, Saturday

Time Temperature Precipitation Wind Pressure Humidity
00:00 +22°C° 0.1 mm 4 mps 682 mmHg 89%
01:00 +22°C° 0.1 mm 4 mps 681 mmHg 89%
02:00 +22°C° 0.1 mm 3 mps 681 mmHg 90%
03:00 +22°C° 0 mm 3 mps 681 mmHg 89%
04:00 +21°C° 0 mm 3 mps 681 mmHg 89%
05:00 +21°C° 0 mm 3 mps 681 mmHg 88%
06:00 +22°C° 0 mm 4 mps 681 mmHg 88%
07:00 +22°C° 0 mm 4 mps 682 mmHg 88%
08:00 +22°C° 0 mm 4 mps 683 mmHg 87%
09:00 +23°C° 0.5 mm 4 mps 683 mmHg 85%
10:00 +23°C° 0.5 mm 4 mps 683 mmHg 82%
11:00 +25°C° 0.5 mm 5 mps 683 mmHg 79%
12:00 +25°C° 1.4 mm 4 mps 682 mmHg 79%
13:00 +25°C° 1.4 mm 4 mps 682 mmHg 79%
14:00 +25°C° 1.4 mm 3 mps 681 mmHg 79%
15:00 +25°C° 0.2 mm 3 mps 681 mmHg 80%
16:00 +24°C° 0.2 mm 3 mps 681 mmHg 80%
17:00 +24°C° 0.2 mm 3 mps 681 mmHg 81%
18:00 +24°C° 0 mm 3 mps 681 mmHg 82%
19:00 +23°C° 0 mm 2 mps 682 mmHg 83%
20:00 +23°C° 0 mm 2 mps 682 mmHg 84%
21:00 +23°C° 0 mm 2 mps 682 mmHg 86%
22:00 +23°C° 0 mm 2 mps 682 mmHg 87%
23:00 +22°C° 0 mm 3 mps 682 mmHg 89%

Day after tomorrow, 27 September, Sunday

Time Temperature Precipitation Wind Pressure Humidity
00:00 +21°C° 0 mm 3 mps 682 mmHg 89%
01:00 +21°C° 0 mm 3 mps 682 mmHg 90%
02:00 +21°C° 0 mm 3 mps 682 mmHg 90%
03:00 +21°C° 0 mm 3 mps 681 mmHg 91%
04:00 +21°C° 0 mm 3 mps 681 mmHg 91%
05:00 +21°C° 0 mm 3 mps 681 mmHg 91%
06:00 +21°C° 0 mm 3 mps 682 mmHg 88%
07:00 +22°C° 0 mm 3 mps 683 mmHg 86%
08:00 +22°C° 0 mm 3 mps 683 mmHg 84%
09:00 +25°C° 0.4 mm 3 mps 683 mmHg 78%
10:00 +26°C° 0.4 mm 4 mps 683 mmHg 72%
11:00 +28°C° 0.4 mm 4 mps 684 mmHg 66%
12:00 +28°C° 0.9 mm 4 mps 683 mmHg 65%
13:00 +28°C° 0.9 mm 4 mps 682 mmHg 64%
14:00 +28°C° 0.9 mm 4 mps 681 mmHg 63%
15:00 +28°C° 0.4 mm 4 mps 681 mmHg 66%
16:00 +27°C° 0.4 mm 4 mps 681 mmHg 69%
17:00 +26°C° 0.4 mm 4 mps 681 mmHg 72%
18:00 +25°C° 0 mm 3 mps 682 mmHg 75%
19:00 +24°C° 0 mm 3 mps 682 mmHg 79%
20:00 +23°C° 0 mm 2 mps 682 mmHg 83%
21:00 +23°C° 0 mm 2 mps 682 mmHg 84%
22:00 +21°C° 0 mm 2 mps 683 mmHg 85%
23:00 +21°C° 0 mm 2 mps 683 mmHg 86%

28 September, Monday

Time Temperature Precipitation Wind Pressure Humidity
00:00 +21°C° 0 mm 2 mps 682 mmHg 87%
01:00 +21°C° 0 mm 2 mps 682 mmHg 89%
02:00 +20°C° 0 mm 2 mps 681 mmHg 90%
03:00 +20°C° 0 mm 2 mps 681 mmHg 91%
04:00 +20°C° 0 mm 2 mps 681 mmHg 91%
05:00 +20°C° 0 mm 2 mps 681 mmHg 92%
06:00 +21°C° 0 mm 2 mps 682 mmHg 87%
07:00 +22°C° 0 mm 3 mps 683 mmHg 82%
08:00 +24°C° 0 mm 3 mps 684 mmHg 76%
09:00 +25°C° 0 mm 4 mps 684 mmHg 71%
10:00 +27°C° 0 mm 4 mps 684 mmHg 65%
11:00 +28°C° 0 mm 4 mps 684 mmHg 59%
12:00 +29°C° 0 mm 4 mps 683 mmHg 57%
13:00 +29°C° 0 mm 4 mps 682 mmHg 55%
14:00 +30°C° 0 mm 4 mps 681 mmHg 53%
15:00 +29°C° 0 mm 4 mps 681 mmHg 57%
16:00 +28°C° 0 mm 3 mps 681 mmHg 61%
17:00 +28°C° 0 mm 3 mps 681 mmHg 65%
18:00 +27°C° 0 mm 3 mps 681 mmHg 66%
19:00 +26°C° 0 mm 2 mps 682 mmHg 67%
20:00 +25°C° 0 mm 2 mps 682 mmHg 69%
21:00 +24°C° 0 mm 2 mps 682 mmHg 73%
22:00 +24°C° 0 mm 3 mps 682 mmHg 78%
23:00 +22°C° 0 mm 3 mps 682 mmHg 83%

29 September, Tuesday

Time Temperature Precipitation Wind Pressure Humidity
00:00 +22°C° 0 mm 3 mps 682 mmHg 86%
01:00 +21°C° 0 mm 2 mps 681 mmHg 88%
02:00 +21°C° 0 mm 2 mps 681 mmHg 90%
03:00 +21°C° 0 mm 2 mps 681 mmHg 91%
04:00 +20°C° 0 mm 2 mps 681 mmHg 92%
05:00 +20°C° 0 mm 2 mps 681 mmHg 93%
06:00 +21°C° 0 mm 3 mps 681 mmHg 88%
07:00 +22°C° 0 mm 3 mps 682 mmHg 83%
08:00 +23°C° 0 mm 4 mps 683 mmHg 79%
09:00 +26°C° 0 mm 4 mps 683 mmHg 73%
10:00 +27°C° 0 mm 4 mps 683 mmHg 67%
11:00 +28°C° 0 mm 4 mps 683 mmHg 62%
12:00 +29°C° 0.1 mm 4 mps 682 mmHg 61%
13:00 +29°C° 0.1 mm 5 mps 681 mmHg 59%
14:00 +29°C° 0.1 mm 5 mps 680 mmHg 58%
15:00 +29°C° 0.3 mm 4 mps 680 mmHg 62%
16:00 +28°C° 0.3 mm 4 mps 680 mmHg 66%
17:00 +27°C° 0.3 mm 3 mps 680 mmHg 70%
18:00 +26°C° 0.7 mm 3 mps 680 mmHg 73%
19:00 +25°C° 0.7 mm 3 mps 681 mmHg 76%
20:00 +24°C° 0.7 mm 3 mps 681 mmHg 80%
21:00 +22°C° 0.7 mm 3 mps 681 mmHg 82%
22:00 +22°C° 0.7 mm 3 mps 681 mmHg 84%
23:00 +21°C° 0.7 mm 4 mps 681 mmHg 87%

30 September, Wednesday

Time Temperature Precipitation Wind Pressure Humidity
00:00 +21°C° 0.6 mm 4 mps 681 mmHg 88%
01:00 +21°C° 0.6 mm 4 mps 681 mmHg 88%
02:00 +21°C° 0.6 mm 3 mps 680 mmHg 89%
03:00 +21°C° 0.1 mm 3 mps 680 mmHg 90%
04:00 +21°C° 0.1 mm 3 mps 680 mmHg 91%
05:00 +20°C° 0.1 mm 3 mps 680 mmHg 91%
06:00 +21°C° 0 mm 3 mps 681 mmHg 89%
07:00 +22°C° 0 mm 4 mps 681 mmHg 87%
08:00 +22°C° 0 mm 4 mps 682 mmHg 84%
09:00 +23°C° 0 mm 4 mps 682 mmHg 81%
10:00 +25°C° 0 mm 3 mps 682 mmHg 78%
11:00 +25°C° 0 mm 3 mps 682 mmHg 74%
12:00 +26°C° 0 mm 4 mps 681 mmHg 69%
13:00 +28°C° 0 mm 4 mps 680 mmHg 65%
14:00 +29°C° 0 mm 5 mps 680 mmHg 60%
15:00 +28°C° 0.1 mm 4 mps 680 mmHg 63%
16:00 +27°C° 0.1 mm 4 mps 680 mmHg 66%
17:00 +27°C° 0.1 mm 3 mps 680 mmHg 70%
18:00 +26°C° 0.1 mm 3 mps 680 mmHg 73%
19:00 +25°C° 0.1 mm 3 mps 681 mmHg 76%
20:00 +24°C° 0.1 mm 3 mps 681 mmHg 79%
21:00 +22°C° 0 mm 3 mps 681 mmHg 82%
22:00 +22°C° 0 mm 4 mps 681 mmHg 85%
23:00 +21°C° 0 mm 4 mps 681 mmHg 88%
Show more